Lovelock, NV

3:47 AM PDT on March 26, 2017 (GMT -0700)
Derby

Weather History for KLOL - December, 2012

Change the Weather History Date:

Friday, December 7, 2012

  Actual Average Record
Temperature  
Mean Temperature 33 °F -  
Max Temperature 45 °F 45 °F 62 °F (1977)
Min Temperature 21 °F 19 °F 0 °F (1959)
Degree Days  
Heating Degree Days 32    
Moisture  
Dew Point 27 °F    
Average Humidity 94    
Maximum Humidity 100    
Minimum Humidity 68    
Precipitation  
Precipitation 0.00 in - - ()
Sea Level Pressure  
Sea Level Pressure 30.17 in    
Wind  
Wind Speed 2 mph (South)    
Max Wind Speed 9 mph    
Max Gust Speed -    
Visibility 3 miles    
Events Fog    
Averages and records for this station are not official NWS values.
T = Trace of Precipitation, MM = Missing Value Source: NWS Daily Summary

Daily Weather History Graph

Daily Weather History Graph

Search for Another Location

Airport or City:

Trip Planner

Search our weather history database for the weather conditions in past years. The results will help you decide how hot, cold, wet, or windy it might be!

Date:

Astronomy

Dec. 07, 2012 Rise Set
Actual Time 7:03 AM PST 4:28 PM PST
Civil Twilight 6:32 AM PST 4:59 PM PST
Nautical Twilight 5:59 AM PST 5:32 PM PST
Astronomical Twilight 5:26 AM PST 6:05 PM PST
Moon 12:27 AM PST (12/7) 12:28 PM PST (12/7)
Length of Visible Light 10h 26m
Length of Day
9h 25m
Last Quarter, 37% of the Moon is Illuminated
Dec 7
Last Quarter
Dec 13
New
Dec 19
First Quarter
Dec 28
Full
Jan 4
Last Quarter

Hourly Weather History & Observations

Time (PST) Temp. Windchill Dew Point Humidity Pressure Visibility Wind Dir Wind Speed Gust Speed Precip Events Conditions
12:53 AM 28.0 °F 24.2 °F 28.0 °F 100% 30.19 in 0.2 mi WSW 3.5 mph - 0.00 in Fog Light Freezing Fog
1:18 AM 27.0 °F - 27.0 °F 100% 30.15 in 0.5 mi Calm Calm - N/A Fog Light Freezing Fog
1:27 AM 26.1 °F - 26.1 °F 100% 30.15 in 0.2 mi Calm Calm - N/A Fog Light Freezing Fog
1:43 AM 26.1 °F - 26.1 °F 100% 30.15 in 0.2 mi Calm Calm - N/A Fog Light Freezing Fog
1:53 AM 26.1 °F - 26.1 °F 100% 30.19 in 0.2 mi Calm Calm - N/A Fog Light Freezing Fog
1:56 AM 26.1 °F - 25.0 °F 96% 30.16 in 0.5 mi Calm Calm - N/A Fog Light Freezing Fog
2:06 AM 26.1 °F 21.9 °F 26.1 °F 100% 30.16 in 0.5 mi ENE 3.5 mph - N/A Fog Light Freezing Fog
2:15 AM 25.0 °F - 25.0 °F 100% 30.17 in 2.5 mi Calm Calm - N/A   Overcast
2:26 AM 25.0 °F - 24.1 °F 96% 30.17 in 0.8 mi Calm Calm - N/A   Mist
2:37 AM 25.0 °F - 25.0 °F 100% 30.17 in 0.2 mi Calm Calm - N/A Fog Light Freezing Fog
2:53 AM 26.1 °F - 25.0 °F 96% 30.19 in 0.2 mi Calm Calm - N/A Fog Light Freezing Fog
3:02 AM 25.0 °F - 25.0 °F 100% 30.16 in 0.5 mi Calm Calm - N/A Fog Light Freezing Fog
3:12 AM 24.1 °F 19.7 °F 23.0 °F 96% 30.16 in 1.0 mi WSW 3.5 mph - N/A   Mist
3:20 AM 23.0 °F 18.4 °F 21.9 °F 96% 30.16 in 0.8 mi SW 3.5 mph - N/A   Mist
3:46 AM 24.1 °F 19.7 °F 23.0 °F 96% 30.15 in 0.2 mi SSW 3.5 mph - N/A Fog Light Freezing Fog
3:53 AM 23.0 °F - 23.0 °F 100% 30.20 in 0.2 mi Calm Calm - N/A Fog Light Freezing Fog
4:05 AM 23.0 °F 17.0 °F 21.9 °F 96% 30.15 in 1.0 mi South 4.6 mph - N/A   Mist
4:21 AM 23.0 °F - 21.9 °F 96% 30.16 in 0.8 mi Calm Calm - N/A   Mist
4:49 AM 24.8 °F - 23.0 °F 93% 30.16 in 0.2 mi Calm Calm - N/A Fog Light Freezing Fog
4:53 AM 24.1 °F - 24.1 °F 100% 30.22 in 0.2 mi Calm Calm - N/A Fog Light Freezing Fog
5:41 AM 21.9 °F - 21.0 °F 96% 30.16 in 0.5 mi Calm Calm - N/A Fog Light Freezing Fog
5:53 AM 21.9 °F - 21.0 °F 96% 30.22 in 0.2 mi Calm Calm - N/A Fog Light Freezing Fog
6:53 AM 21.0 °F 16.2 °F 19.9 °F 96% 30.25 in 0.5 mi SE 3.5 mph - N/A Fog Light Freezing Fog
7:15 AM 21.0 °F 16.2 °F 19.9 °F 96% 30.17 in 0.2 mi ESE 3.5 mph - N/A Fog Light Freezing Fog
7:53 AM 21.0 °F - 21.0 °F 100% 30.25 in 0.2 mi Calm Calm - N/A Fog Light Freezing Fog
8:20 AM 21.9 °F - 21.0 °F 96% 30.18 in 0.5 mi Calm Calm - N/A Fog Light Freezing Fog
8:36 AM 23.0 °F - 21.9 °F 96% 30.18 in 1.0 mi Calm Calm - N/A   Overcast
8:47 AM 24.8 °F - 23.0 °F 93% 30.18 in 3.0 mi Calm Calm - N/A   Overcast
8:53 AM 25.0 °F - 24.1 °F 96% 30.25 in 6.0 mi Calm Calm - N/A   Mostly Cloudy
9:06 AM 26.1 °F - 24.1 °F 92% 30.19 in 10.0 mi Calm Calm - N/A   Scattered Clouds
9:23 AM 27.0 °F 23.0 °F 26.1 °F 96% 30.19 in 2.5 mi South 3.5 mph - N/A   Mostly Cloudy
9:31 AM 27.0 °F 21.6 °F 27.0 °F 100% 30.20 in 0.8 mi SSW 4.6 mph - N/A   Mist
9:40 AM 27.0 °F 23.0 °F 27.0 °F 100% 30.20 in 0.2 mi SSW 3.5 mph - N/A Fog Light Freezing Fog
9:53 AM 28.0 °F 22.8 °F 28.0 °F 100% 30.27 in 0.2 mi South 4.6 mph - N/A Fog Light Freezing Fog
10:53 AM 32.0 °F 27.5 °F 32.0 °F 100% 30.24 in 0.2 mi SSW 4.6 mph - N/A Fog Fog
11:07 AM 32.0 °F - 32.0 °F 100% 30.17 in 0.5 mi Calm Calm - N/A Fog Fog
11:17 AM 32.0 °F - 32.0 °F 100% 30.17 in 2.5 mi Calm Calm - N/A   Overcast
11:24 AM 32.0 °F - 32.0 °F 100% 30.16 in 9.0 mi Calm Calm - N/A   Overcast
11:41 AM 36.0 °F - 34.0 °F 93% 30.16 in 10.0 mi Calm Calm - N/A   Scattered Clouds
11:53 AM 36.0 °F - 35.1 °F 97% 30.21 in 10.0 mi Calm Calm - N/A   Clear
12:53 PM 42.1 °F 38.4 °F 34.0 °F 73% 30.17 in 10.0 mi Variable 5.8 mph - N/A   Clear
1:53 PM 44.1 °F 42.5 °F 36.0 °F 73% 30.14 in 10.0 mi SW 3.5 mph - N/A   Clear
2:53 PM 45.0 °F 43.5 °F 35.1 °F 68% 30.13 in 10.0 mi South 3.5 mph - N/A   Clear
3:53 PM 44.1 °F - 35.1 °F 71% 30.14 in 10.0 mi Calm Calm - N/A   Clear
5:53 PM 37.9 °F 35.5 °F 34.0 °F 86% 30.14 in 10.0 mi East 3.5 mph - N/A   Clear
6:53 PM 37.9 °F 34.4 °F 34.0 °F 86% 30.13 in 10.0 mi NE 4.6 mph - N/A   Clear
7:53 PM 33.1 °F 25.5 °F 30.0 °F 89% 30.14 in 10.0 mi West 9.2 mph - N/A   Scattered Clouds
8:53 PM 30.9 °F 26.2 °F 28.9 °F 92% 30.14 in 10.0 mi ESE 4.6 mph - N/A   Clear
9:53 PM 30.0 °F - 28.0 °F 92% 30.14 in 9.0 mi Calm Calm - N/A   Clear
10:53 PM 27.0 °F 21.6 °F 25.0 °F 92% 30.14 in 8.0 mi NE 4.6 mph - N/A   Partly Cloudy
11:53 PM 25.0 °F 17.1 °F 23.0 °F 92% 30.13 in 10.0 mi ENE 6.9 mph - N/A   Clear